This is the latest recevied weather packets stored in our database for station/object EA5JUX. If no packets are shown the sender has not sent any weather packets the latest 10 day(s).
| Time | Temp. | Humidity | Pressure | Rain* | Wind** | Luminosity | Snow |
|---|---|---|---|---|---|---|---|
| 1778151737 | 19.44° C | 72% | 1010.4 hPa | 0 mm | - | - | - |
| 1778151437 | 20° C | 72% | 1010.3 hPa | 0 mm | - | - | - |
| 1778151136 | 20.56° C | 75% | 1010.4 hPa | 0 mm | - | - | - |
| 1778150845 | 20.56° C | 75% | 1010.5 hPa | 0 mm | - | - | - |
| 1778150547 | 20° C | 76% | 1010.5 hPa | 0 mm | - | - | - |
| 1778150236 | 20° C | 78% | 1010.7 hPa | 0 mm | - | - | - |
| 1778149954 | 19.44° C | 80% | 1010.7 hPa | 0 mm | - | - | - |
| 1778149637 | 19.44° C | 81% | 1010.6 hPa | 0 mm | - | - | - |
| 1778149336 | 18.89° C | 81% | 1010.6 hPa | 0 mm | - | - | - |
| 1778149037 | 18.89° C | 80% | 1010.6 hPa | 0 mm | - | - | - |
| 1778148737 | 18.89° C | 79% | 1010.5 hPa | 0 mm | - | - | - |
| 1778148437 | 19.44° C | 79% | 1010.5 hPa | 0 mm | - | - | - |
| 1778148137 | 19.44° C | 79% | 1010.5 hPa | 0 mm | - | - | - |
| 1778147857 | 19.44° C | 78% | 1010.4 hPa | 0 mm | - | - | - |
| 1778147537 | 19.44° C | 78% | 1010.4 hPa | 0 mm | - | - | - |
| 1778147237 | 19.44° C | 79% | 1010.4 hPa | 0 mm | - | - | - |
| 1778146937 | 18.89° C | 77% | 1010.4 hPa | 0 mm | - | - | - |
| 1778146637 | 18.33° C | 77% | 1010.5 hPa | 0 mm | - | - | - |
| 1778146337 | 18.33° C | 78% | 1010.6 hPa | 0 mm | - | - | - |
| 1778146037 | 18.33° C | 80% | 1010.7 hPa | 0 mm | - | - | - |
| 1778145737 | 18.89° C | 79% | 1010.5 hPa | 0 mm | - | - | - |
| 1778145437 | 18.89° C | 78% | 1010.5 hPa | 0 mm | - | - | - |
| 1778145137 | 19.44° C | 78% | 1010.5 hPa | 0 mm | - | - | - |
| 1778144837 | 19.44° C | 76% | 1010.6 hPa | 0 mm | - | - | - |
| 1778144536 | 20° C | 75% | 1010.3 hPa | 0 mm | - | - | - |
* Rain latest hour (hover to see other rain measurements)
** Current wind speed in m/s (hover to see current wind gust speed)